Terug naar catalogus

STARLINK-31073

ActiefCommunicatieVLEO
NORAD 58773·PAYLOAD·🇺🇸 United States

Gelanceerd Jan 14, 2024 vanaf Vandenberg Space Force Base

Loading…

Volgende Passages (komende 24 uur)

TLE

VersSource: CelesTrak SupGP

Epoch: Sep 14, 2026, 21:15 UTC

1 58773C 24011J   26257.88590278  .00028225  00000+0  83370-3 0  2576
2 58773  53.1580 214.0690 0001421  96.7508  77.6658 15.34384334    17

Volg STARLINK-31073 in realtime met AllMySat

Download on the App Store